Flag for Germany Weather past 2 weeks in Schwäbisch Gmünd, Baden-Württemberg, Germany

Now
37 °F

Light rain. Low clouds.


Feels Like: 29 °F
Forecast: 38 / 47 °F
Wind: 13 mph from West

Location: Stoetten

Current Time: Oct 22, 2014 at 6:19:32 PM

Latest Report: Oct 22, 2014 at 6:00 PM


Visibility: 2 mi

Pressure: 30.05 "Hg

Humidity: 97%

Dew point: 36 °F

Location of Schwäbisch GmündLocation

Historic Weather in Schwäbisch Gmünd — Graph

°F

Schwäbisch Gmünd temperature yesterday

Maximum temperature yesterday: 56 °F (at 3:00 PM)
Minimum temperature yesterday: 42 °F (at 11:00 PM)
Average temperature yesterday: 51 °F

Past Weeks' High & Low Weather Summary

 TemperatureHumidityPressure
High74 °F (Oct 9, 3:00 PM)100% (Oct 11, 4:00 AM)30.25 "Hg (Oct 11, 4:00 AM)
Low36 °F (Oct 22, 2:00 PM)41% (Oct 9, 3:00 PM)29.62 "Hg (Oct 21, 8:00 PM)
Average55 °F87%29.94 "Hg
* Reported Oct 7 5:00 PM — Oct 22 5:00 PM, Schwäbisch Gmünd, Weather by CustomWeather, © 2014

Note: Actual official high and low records may vary slightly from our data, if they occured in-between our weather recording intervals... More about our weather records

Advertising

Schwäbisch Gmünd weather history for previous 24 hours

 ConditionsComfort  
Time TempWeatherWind HumidityBarometerVisibility
5:00 PM
Oct 22
37 °FLight rain. Low clouds.16 mph95%30.04 "Hg2 mi
4:00 PM36 °FLight rain. Dense fog.15 mph99%30.06 "Hg1 mi
3:00 PM36 °FLight rain. Low clouds.15 mph98%30.08 "Hg1 mi
2:00 PM36 °FLight rain. Low clouds.10 mph99%30.08 "Hg5 mi
1:00 PM37 °FLight rain. Low clouds.10 mph97%30.07 "Hg11 mi
12:00 PM38 °FLight rain. Low clouds.13 mph91%30.06 "Hg11 mi
11:00 AM37 °FLight rain. Low clouds.10 mph93%30.06 "Hg16 mi
10:00 AM37 °FLight rain. Low clouds.13 mph92%30.04 "Hg28 mi
9:00 AM36 °FLight rain. Low clouds.14 mph92%30.03 "Hg17 mi
8:00 AM36 °FLight rain. Overcast.13 mph91%30.00 "Hg22 mi
7:00 AM37 °FOvercast.16 mph88%29.97 "Hg47 mi
6:00 AM38 °FOvercast.14 mph85%29.96 "Hg40 mi
5:00 AM39 °FLow clouds.13 mph91%29.95 "Hg19 mi
4:00 AM39 °FLow clouds.10 mph93%29.97 "Hg16 mi
3:00 AM39 °FLight freezing rain. Low clouds.12 mph94%29.98 "Hg8 mi
2:00 AM39 °FLow clouds.13 mph90%29.97 "Hg28 mi
1:00 AM41 °FOvercast.14 mph83%29.97 "Hg25 mi
12:00 AM42 °FOvercast.12 mph84%29.95 "Hg31 mi
11:00 PM
Oct 21
42 °FOvercast.16 mph85%29.87 "Hg28 mi
10:00 PM43 °FLow clouds.20 mph88%29.78 "Hg28 mi
9:00 PM43 °FFog.17 mph91%29.77 "Hg47 mi
8:00 PM52 °FRain. Dense fog.18 mph84%29.62 "Hg1 mi
7:00 PM55 °FOvercast.9 mph69%29.64 "Hg47 mi
6:00 PM54 °FPartly sunny.8 mph73%29.69 "Hg43 mi
Weather by CustomWeather, © 2014

See weather overviewHow to use our weather pages